| time (UTC) | temp F | wind direction | speed knots | gust knots | rain 1hr in | rain 24hr in | rain mn in | humidity % | barometer mb |
| 20260510051818 | 76 | 91 | 1.7 | 1.7 | 0.00 | 0.00 | 0.00 | 77 | 1012.6 |
| 20260510051315 | 76 | 97 | 3.5 | 3.5 | 0.00 | 0.00 | 0.00 | 78 | 1012.6 |
| 20260510050812 | 76 | 121 | 1.7 | 1.7 | 0.00 | 0.00 | 0.00 | 78 | 1012.7 |
| 20260510050309 | 76 | 87 | 0.9 | 1.7 | 0.00 | 0.00 | 0.00 | 78 | 1012.6 |
| 20260510045806 | 76 | 147 | 1.7 | 2.6 | 0.00 | 0.00 | 0.00 | 78 | 1012.6 |
| 20260510045305 | 76 | 81 | 1.7 | 1.7 | 0.00 | 0.00 | 0.00 | 79 | 1012.3 |
| 20260510044759 | 76 | 116 | 3.5 | 3.5 | 0.00 | 0.00 | 0.00 | 79 | 1012.4 |
| 20260510044256 | 76 | 93 | 1.7 | 2.6 | 0.00 | 0.00 | 0.00 | 80 | 1012.4 |
| 20260510043752 | 76 | 109 | 0.9 | 0.9 | 0.00 | 0.00 | 0.00 | 82 | 1012.6 |
| 20260510043243 | 77 | 92 | 2.6 | 2.6 | 0.00 | 0.00 | 0.00 | 82 | 1012.7 |
| 20260510042740 | 77 | 100 | 3.5 | 5.2 | 0.00 | 0.00 | 0.00 | 81 | 1012.4 |
| 20260510042230 | 77 | 69 | 1.7 | 1.7 | 0.00 | 0.00 | 0.00 | 82 | 1012.5 |
| 20260510041727 | 77 | 84 | 0.0 | 0.9 | 0.00 | 0.00 | 0.00 | 81 | 1012.5 |
| 20260510041225 | 77 | 111 | 0.9 | 1.7 | 0.00 | 0.00 | 0.00 | 81 | 1012.5 |
| 20260510040721 | 77 | 87 | 2.6 | 2.6 | 0.00 | 0.00 | 0.00 | 81 | 1012.5 |
| 20260510040218 | 78 | 91 | 1.7 | 2.6 | 0.00 | 0.00 | 0.00 | 80 | 1012.3 |
| 20260510035713 | 78 | 138 | 1.7 | 1.7 | 0.00 | 0.00 | 0.00 | 80 | 1012.4 |
| 20260510035210 | 78 | 132 | 1.7 | 1.7 | 0.00 | 0.00 | 0.00 | 80 | 1012.4 |
| 20260510034705 | 78 | 101 | 1.7 | 1.7 | 0.00 | 0.00 | 0.00 | 80 | 1012.4 |
| 20260510034203 | 78 | 104 | 2.6 | 2.6 | 0.00 | 0.00 | 0.00 | 80 | 1012.3 |
| 20260510033659 | 78 | 118 | 0.9 | 1.7 | 0.00 | 0.00 | 0.00 | 79 | 1012.3 |
| 20260510033158 | 78 | 134 | 1.7 | 2.6 | 0.00 | 0.00 | 0.00 | 79 | 1012.1 |
| 20260510032653 | 78 | 99 | 1.7 | 2.6 | 0.00 | 0.00 | 0.00 | 79 | 1012.2 |
| 20260510032149 | 79 | 111 | 1.7 | 2.6 | 0.00 | 0.00 | 0.00 | 79 | 1012.2 |
| 20260510031643 | 79 | 99 | 3.5 | 5.2 | 0.00 | 0.00 | 0.00 | 78 | 1012.1 |
| 20260510031140 | 79 | 143 | 1.7 | 1.7 | 0.00 | 0.00 | 0.00 | 78 | 1012.0 |
| 20260510030635 | 79 | 114 | 1.7 | 2.6 | 0.00 | 0.00 | 0.00 | 78 | 1011.9 |
| 20260510030133 | 79 | 104 | 3.5 | 5.2 | 0.00 | 0.00 | 0.00 | 78 | 1011.8 |
| 20260510025630 | 80 | 81 | 1.7 | 1.7 | 0.00 | 0.00 | 0.00 | 77 | 1011.8 |
| 20260510025127 | 80 | 78 | 2.6 | 3.5 | 0.00 | 0.00 | 0.00 | 77 | 1011.6 |
| 20260510024624 | 80 | 110 | 0.9 | 0.9 | 0.00 | 0.00 | 0.00 | 76 | 1011.6 |
| 20260510024121 | 80 | 101 | 2.6 | 2.6 | 0.00 | 0.00 | 0.00 | 76 | 1011.6 |
| 20260510023616 | 80 | 138 | 6.1 | 7.0 | 0.00 | 0.00 | 0.00 | 75 | 1011.4 |
| 20260510023113 | 81 | 148 | 0.9 | 1.7 | 0.00 | 0.00 | 0.00 | 73 | 1011.6 |
| 20260510022608 | 81 | 86 | 2.6 | 2.6 | 0.00 | 0.00 | 0.00 | 72 | 1011.5 |
| 20260510022102 | 81 | 68 | 1.7 | 2.6 | 0.00 | 0.00 | 0.00 | 71 | 1011.2 |
| 20260510021559 | 82 | 127 | 3.5 | 5.2 | 0.00 | 0.00 | 0.00 | 70 | 1011.1 |
| 20260510021056 | 82 | 136 | 0.9 | 0.9 | 0.00 | 0.00 | 0.00 | 68 | 1011.0 |
| 20260510020550 | 82 | 144 | 0.9 | 1.7 | 0.00 | 0.00 | 0.00 | 67 | 1010.8 |
| 20260510020046 | 82 | 125 | 1.7 | 1.7 | 0.00 | 0.00 | 0.00 | 67 | 1010.7 |
| 20260510015542 | 82 | 142 | 2.6 | 2.6 | 0.00 | 0.00 | 0.00 | 66 | 1010.8 |
| 20260510015038 | 82 | 135 | 0.9 | 0.9 | 0.00 | 0.00 | 0.00 | 66 | 1010.7 |
| 20260510014535 | 83 | 105 | 1.7 | 2.6 | 0.00 | 0.00 | 0.00 | 65 | 1010.7 |
| 20260510014032 | 83 | 153 | 1.7 | 1.7 | 0.00 | 0.00 | 0.00 | 64 | 1010.9 |
| 20260510013526 | 83 | 130 | 1.7 | 1.7 | 0.00 | 0.00 | 0.00 | 64 | 1010.8 |
| 20260510013022 | 83 | 137 | 1.7 | 1.7 | 0.00 | 0.00 | 0.00 | 63 | 1010.6 |
| 20260510012522 | 83 | 118 | 1.7 | 1.7 | 0.00 | 0.00 | 0.00 | 63 | 1010.6 |
| 20260510012019 | 84 | 125 | 1.7 | 1.7 | 0.00 | 0.00 | 0.00 | 62 | 1010.7 |
| 20260510011518 | 84 | 99 | 1.7 | 2.6 | 0.00 | 0.00 | 0.00 | 61 | 1010.4 |
| 20260510011013 | 84 | 143 | 2.6 | 3.5 | 0.00 | 0.00 | 0.00 | 61 | 1010.6 |
| 20260510010511 | 84 | 116 | 2.6 | 2.6 | 0.00 | 0.00 | 0.00 | 60 | 1010.6 |
| 20260510010008 | 85 | 103 | 3.5 | 5.2 | 0.00 | 0.00 | 0.00 | 60 | 1010.5 |
| 20260510005503 | 85 | 99 | 2.6 | 3.5 | 0.00 | 0.00 | 0.00 | 60 | 1010.4 |
| 20260510005001 | 85 | 94 | 3.5 | 5.2 | 0.00 | 0.00 | 0.00 | 60 | 1010.4 |
| 20260510004458 | 85 | 87 | 3.5 | 5.2 | 0.00 | 0.00 | 0.00 | 59 | 1010.3 |
| 20260510003957 | 85 | 84 | 3.5 | 5.2 | 0.00 | 0.00 | 0.00 | 58 | 1010.3 |
| 20260510003453 | 85 | 105 | 4.3 | 5.2 | 0.00 | 0.00 | 0.00 | 58 | 1010.4 |
| 20260510002948 | 85 | 97 | 3.5 | 3.5 | 0.00 | 0.00 | 0.00 | 58 | 1010.3 |
| 20260510002444 | 86 | 122 | 4.3 | 6.1 | 0.00 | 0.00 | 0.00 | 58 | 1010.2 |
| 20260510001941 | 86 | 106 | 6.1 | 7.8 | 0.00 | 0.00 | 0.00 | 57 | 1010.2 |
| 20260510001438 | 86 | 86 | 3.5 | 3.5 | 0.00 | 0.00 | 0.00 | 57 | 1010.2 |
| 20260510000936 | 86 | 81 | 3.5 | 6.1 | 0.00 | 0.00 | 0.00 | 57 | 1010.0 |
| 20260510000433 | 86 | 108 | 3.5 | 5.2 | 0.00 | 0.00 | 0.00 | 56 | 1010.1 |
| 20260509235928 | 86 | 107 | 5.2 | 6.1 | 0.00 | 0.00 | 0.00 | 57 | 1010.1 |
| 20260509235426 | 87 | 152 | 1.7 | 2.6 | 0.00 | 0.00 | 0.00 | 57 | 1009.8 |
| 20260509234922 | 87 | 124 | 2.6 | 2.6 | 0.00 | 0.00 | 0.00 | 56 | 1010.0 |
| 20260509234419 | 87 | 98 | 1.7 | 3.5 | 0.00 | 0.00 | 0.00 | 56 | 1009.8 |
| 20260509233917 | 87 | 66 | 0.0 | 0.0 | 0.00 | 0.00 | 0.00 | 56 | 1009.8 |
| 20260509233414 | 86 | 169 | 4.3 | 5.2 | 0.00 | 0.00 | 0.00 | 56 | 1009.8 |
| 20260509232910 | 87 | 131 | 3.5 | 3.5 | 0.00 | 0.00 | 0.00 | 56 | 1009.8 |
| 20260509232408 | 86 | 119 | 3.5 | 5.2 | 0.00 | 0.00 | 0.00 | 56 | 1009.8 |
| 20260509231903 | 87 | 36 | 0.0 | 0.0 | 0.00 | 0.00 | 0.00 | 55 | 1009.6 |
| 20260509231400 | 87 | 94 | 3.5 | 5.2 | 0.00 | 0.00 | 0.00 | 56 | 1009.7 |
| 20260509230859 | 87 | 131 | 5.2 | 7.0 | 0.00 | 0.00 | 0.00 | 56 | 1009.7 |
| 20260509230355 | 88 | 123 | 3.5 | 3.5 | 0.00 | 0.00 | 0.00 | 56 | 1009.8 |
| 20260509225851 | 87 | 59 | 3.5 | 3.5 | 0.00 | 0.00 | 0.00 | 55 | 1009.7 |
| 20260509225348 | 88 | 134 | 3.5 | 5.2 | 0.00 | 0.00 | 0.00 | 54 | 1009.7 |
| 20260509224843 | 87 | 82 | 5.2 | 6.1 | 0.00 | 0.00 | 0.00 | 55 | 1009.7 |
| 20260509224339 | 87 | 86 | 1.7 | 2.6 | 0.00 | 0.00 | 0.00 | 55 | 1009.9 |
| 20260509223837 | 87 | 152 | 3.5 | 5.2 | 0.00 | 0.00 | 0.00 | 54 | 1009.8 |
| 20260509223333 | 86 | 92 | 5.2 | 7.0 | 0.00 | 0.00 | 0.00 | 56 | 1009.7 |
| 20260509222830 | 86 | 81 | 3.5 | 3.5 | 0.00 | 0.00 | 0.00 | 57 | 1009.7 |
| 20260509222326 | 87 | 94 | 6.1 | 7.0 | 0.00 | 0.00 | 0.00 | 55 | 1009.8 |
| 20260509221821 | 87 | 126 | 2.6 | 2.6 | 0.00 | 0.00 | 0.00 | 55 | 1009.7 |
| 20260509221319 | 87 | 72 | 1.7 | 1.7 | 0.00 | 0.00 | 0.00 | 55 | 1009.8 |
| 20260509220814 | 87 | 146 | 4.3 | 6.1 | 0.00 | 0.00 | 0.00 | 55 | 1009.7 |
| 20260509220310 | 87 | 82 | 3.5 | 5.2 | 0.00 | 0.00 | 0.00 | 54 | 1009.7 |
| 20260509215806 | 87 | 122 | 4.3 | 6.1 | 0.00 | 0.00 | 0.00 | 53 | 1009.8 |
| 20260509215306 | 87 | 121 | 4.3 | 7.0 | 0.00 | 0.00 | 0.00 | 53 | 1009.9 |
| 20260509214800 | 88 | 132 | 7.0 | 7.8 | 0.00 | 0.00 | 0.00 | 53 | 1009.8 |
| 20260509214257 | 88 | 91 | 4.3 | 6.1 | 0.00 | 0.00 | 0.00 | 50 | 1010.0 |
| 20260509213754 | 88 | 119 | 6.1 | 7.0 | 0.00 | 0.00 | 0.00 | 51 | 1010.0 |
| 20260509213249 | 90 | 68 | 3.5 | 7.0 | 0.00 | 0.00 | 0.00 | 51 | 1009.9 |
| 20260509212747 | 89 | 187 | 0.0 | 0.0 | 0.00 | 0.00 | 0.00 | 48 | 1010.0 |
| 20260509212244 | 88 | 40 | 0.0 | 0.9 | 0.00 | 0.00 | 0.00 | 49 | 1010.1 |
| 20260509211745 | 88 | 349 | 1.7 | 1.7 | 0.00 | 0.00 | 0.00 | 53 | 1010.1 |
| 20260509211241 | 87 | 12 | 1.7 | 2.6 | 0.00 | 0.00 | 0.00 | 52 | 1010.3 |
| 20260509210738 | 88 | 339 | 3.5 | 5.2 | 0.00 | 0.00 | 0.00 | 51 | 1010.3 |
| 20260509210236 | 87 | 221 | 0.0 | 0.0 | 0.00 | 0.00 | 0.00 | 54 | 1010.4 |
| 20260509205735 | 87 | 352 | 1.7 | 1.7 | 0.00 | 0.00 | 0.00 | 51 | 1010.5 |
| 20260509205236 | 86 | 117 | 0.0 | 0.9 | 0.00 | 0.00 | 0.00 | 55 | 1010.6 |
| 20260509204732 | 86 | 206 | 0.0 | 0.0 | 0.00 | 0.00 | 0.00 | 51 | 1010.4 |
| 20260509204228 | 86 | 53 | 2.6 | 2.6 | 0.00 | 0.00 | 0.00 | 49 | 1010.8 |
| 20260509203724 | 85 | 101 | 2.6 | 3.5 | 0.00 | 0.00 | 0.00 | 48 | 1010.6 |
| 20260509203223 | 86 | 53 | 1.7 | 3.5 | 0.00 | 0.00 | 0.00 | 50 | 1010.8 |
| 20260509202718 | 85 | 72 | 3.5 | 3.5 | 0.00 | 0.00 | 0.00 | 47 | 1010.7 |
| 20260509202214 | 85 | 129 | 2.6 | 3.5 | 0.00 | 0.00 | 0.00 | 49 | 1011.0 |
| 20260509201709 | 83 | 116 | 4.3 | 6.1 | 0.00 | 0.00 | 0.00 | 52 | 1011.3 |
| 20260509201206 | 83 | 121 | 6.1 | 8.7 | 0.00 | 0.00 | 0.00 | 54 | 1011.4 |
| 20260509200702 | 82 | 95 | 9.6 | 11.3 | 0.00 | 0.00 | 0.00 | 54 | 1011.5 |
| 20260509200157 | 81 | 92 | 7.0 | 8.7 | 0.00 | 0.00 | 0.00 | 52 | 1011.8 |
| 20260509195653 | 81 | 118 | 5.2 | 7.0 | 0.00 | 0.00 | 0.00 | 49 | 1011.8 |
| 20260509195149 | 81 | 84 | 5.2 | 9.6 | 0.00 | 0.00 | 0.00 | 48 | 1012.0 |
| 20260509194643 | 81 | 177 | 5.2 | 7.0 | 0.00 | 0.00 | 0.00 | 52 | 1011.9 |
| 20260509194141 | 82 | 168 | 7.0 | 12.2 | 0.00 | 0.00 | 0.00 | 60 | 1011.8 |
| 20260509193636 | 84 | 194 | 6.1 | 8.7 | 0.00 | 0.00 | 0.00 | 59 | 1011.8 |
| 20260509193132 | 86 | 262 | 0.0 | 0.9 | 0.00 | 0.00 | 0.00 | 64 | 1011.7 |
| 20260509192629 | 86 | 351 | 0.9 | 2.6 | 0.00 | 0.00 | 0.00 | 65 | 1011.5 |
| 20260509192123 | 86 | 42 | 2.6 | 3.5 | 0.00 | 0.00 | 0.00 | 65 | 1011.4 |
| 20260509191618 | 86 | 314 | 0.9 | 1.7 | 0.00 | 0.00 | 0.00 | 66 | 1011.4 |
| 20260509191115 | 85 | 274 | 2.6 | 2.6 | 0.00 | 0.00 | 0.00 | 66 | 1011.4 |
| 20260509190611 | 85 | 308 | 7.8 | 9.6 | 0.00 | 0.00 | 0.00 | 66 | 1011.4 |
| 20260509190109 | 85 | 25 | 1.7 | 3.5 | 0.00 | 0.00 | 0.00 | 68 | 1011.4 |
| 20260509185606 | 86 | 354 | 1.7 | 3.5 | 0.00 | 0.00 | 0.00 | 69 | 1011.5 |
| 20260509185102 | 85 | 330 | 6.1 | 7.0 | 0.00 | 0.00 | 0.00 | 71 | 1011.6 |
| 20260509184601 | 84 | 320 | 8.7 | 9.6 | 0.00 | 0.00 | 0.00 | 70 | 1011.7 |
| 20260509184057 | 85 | 308 | 3.5 | 5.2 | 0.00 | 0.00 | 0.00 | 68 | 1011.7 |
| 20260509183552 | 86 | 333 | 6.1 | 7.0 | 0.00 | 0.00 | 0.00 | 67 | 1011.8 |
| 20260509183048 | 86 | 247 | 0.0 | 0.9 | 0.00 | 0.00 | 0.00 | 66 | 1012.0 |
| 20260509182545 | 86 | 292 | 3.5 | 5.2 | 0.00 | 0.00 | 0.00 | 67 | 1011.9 |
| 20260509182042 | 85 | 279 | 0.9 | 0.9 | 0.00 | 0.00 | 0.00 | 68 | 1012.1 |
| 20260509181540 | 86 | 329 | 2.6 | 3.5 | 0.00 | 0.00 | 0.00 | 68 | 1012.2 |
| 20260509181037 | 87 | 287 | 3.5 | 5.2 | 0.00 | 0.00 | 0.00 | 66 | 1012.1 |
| 20260509180532 | 86 | 334 | 0.9 | 0.9 | 0.00 | 0.00 | 0.00 | 68 | 1012.4 |
| 20260509180030 | 84 | 299 | 0.9 | 0.9 | 0.00 | 0.00 | 0.00 | 70 | 1012.5 |
| 20260509175525 | 84 | 319 | 1.7 | 1.7 | 0.00 | 0.00 | 0.00 | 70 | 1012.2 |
| 20260509175017 | 85 | 265 | 1.7 | 1.7 | 0.00 | 0.00 | 0.00 | 69 | 1012.3 |
| 20260509174513 | 84 | 191 | 0.9 | 0.9 | 0.00 | 0.00 | 0.00 | 72 | 1012.4 |
| 20260509174009 | 84 | 186 | 0.0 | 0.9 | 0.00 | 0.00 | 0.00 | 73 | 1012.3 |
| 20260509173503 | 83 | 224 | 5.2 | 5.2 | 0.00 | 0.00 | 0.00 | 73 | 1012.5 |
| 20260509173000 | 83 | 255 | 1.7 | 2.6 | 0.00 | 0.00 | 0.00 | 75 | 1012.5 |
| 20260509172457 | 83 | 241 | 3.5 | 3.5 | 0.00 | 0.00 | 0.00 | 74 | 1012.7 |
| 20260509171952 | 82 | 281 | 2.6 | 2.6 | 0.00 | 0.00 | 0.00 | 75 | 1012.7 |
| 20260509171449 | 83 | 25 | 0.0 | 0.9 | 0.00 | 0.00 | 0.00 | 75 | 1012.6 |
| 20260509170945 | 83 | 282 | 3.5 | 3.5 | 0.00 | 0.00 | 0.00 | 74 | 1012.9 |
| 20260509170441 | 84 | 199 | 1.7 | 2.6 | 0.00 | 0.00 | 0.00 | 73 | 1012.8 |
| 20260509165937 | 83 | 213 | 3.5 | 3.5 | 0.00 | 0.00 | 0.00 | 75 | 1013.0 |
| 20260509165436 | 84 | 270 | 6.1 | 7.0 | 0.00 | 0.00 | 0.00 | 74 | 1013.0 |
| 20260509164932 | 83 | 222 | 0.0 | 0.0 | 0.00 | 0.00 | 0.00 | 74 | 1012.9 |
| 20260509164428 | 83 | 242 | 3.5 | 3.5 | 0.00 | 0.00 | 0.00 | 77 | 1012.8 |
| 20260509163924 | 83 | 310 | 0.0 | 0.9 | 0.00 | 0.00 | 0.00 | 77 | 1012.7 |
| 20260509163422 | 82 | 243 | 2.6 | 3.5 | 0.00 | 0.00 | 0.00 | 78 | 1013.0 |
| 20260509162920 | 82 | 227 | 5.2 | 6.1 | 0.00 | 0.00 | 0.00 | 78 | 1013.0 |
| 20260509162419 | 80 | 303 | 3.5 | 3.5 | 0.00 | 0.00 | 0.00 | 80 | 1013.0 |
| 20260509161915 | 80 | 312 | 2.6 | 2.6 | 0.00 | 0.00 | 0.00 | 82 | 1013.1 |
| 20260509161411 | 81 | 293 | 1.7 | 1.7 | 0.00 | 0.00 | 0.00 | 81 | 1012.9 |
| 20260509160907 | 80 | 237 | 0.0 | 0.0 | 0.00 | 0.00 | 0.00 | 82 | 1012.8 |
| 20260509160403 | 80 | 228 | 5.2 | 6.1 | 0.00 | 0.00 | 0.00 | 81 | 1012.8 |
| 20260509155858 | 80 | 213 | 3.5 | 5.2 | 0.00 | 0.00 | 0.00 | 84 | 1012.7 |
| 20260509155355 | 79 | 199 | 4.3 | 7.0 | 0.00 | 0.00 | 0.00 | 85 | 1012.7 |
| 20260509154851 | 79 | 170 | 7.0 | 8.7 | 0.00 | 0.00 | 0.00 | 85 | 1012.7 |
| 20260509154348 | 79 | 196 | 6.1 | 7.0 | 0.00 | 0.00 | 0.00 | 85 | 1012.7 |
| 20260509153845 | 77 | 157 | 7.0 | 7.0 | 0.00 | 0.00 | 0.00 | 87 | 1012.9 |
| 20260509153342 | 78 | 206 | 3.5 | 5.2 | 0.00 | 0.00 | 0.00 | 88 | 1012.8 |
| 20260509152839 | 77 | 238 | 2.6 | 3.5 | 0.00 | 0.00 | 0.00 | 88 | 1012.8 |
| 20260509152334 | 77 | 161 | 6.1 | 7.8 | 0.00 | 0.00 | 0.00 | 89 | 1012.5 |
| 20260509151832 | 78 | 162 | 5.2 | 6.1 | 0.00 | 0.00 | 0.00 | 88 | 1012.3 |
| 20260509151328 | 78 | 151 | 7.8 | 11.3 | 0.00 | 0.00 | 0.00 | 88 | 1012.0 |
| 20260509150827 | 77 | 190 | 5.2 | 7.8 | 0.00 | 0.00 | 0.00 | 88 | 1012.1 |
| 20260509150324 | 78 | 185 | 7.0 | 8.7 | 0.00 | 0.00 | 0.00 | 88 | 1012.2 |
| 20260509145821 | 77 | 203 | 5.2 | 7.8 | 0.00 | 0.00 | 0.00 | 89 | 1012.3 |
| 20260509145316 | 77 | 234 | 5.2 | 7.0 | 0.00 | 0.00 | 0.00 | 88 | 1012.4 |
| 20260509144812 | 78 | 155 | 7.0 | 8.7 | 0.00 | 0.00 | 0.00 | 88 | 1012.3 |
| 20260509144309 | 78 | 145 | 5.2 | 7.0 | 0.00 | 0.00 | 0.00 | 88 | 1012.2 |
| 20260509143806 | 78 | 176 | 3.5 | 5.2 | 0.00 | 0.00 | 0.00 | 88 | 1012.5 |
| 20260509143258 | 78 | 249 | 4.3 | 6.1 | 0.00 | 0.00 | 0.00 | 87 | 1012.1 |
| 20260509142754 | 79 | 157 | 4.3 | 5.2 | 0.00 | 0.00 | 0.00 | 86 | 1011.9 |
| 20260509142250 | 79 | 103 | 3.5 | 5.2 | 0.00 | 0.00 | 0.00 | 85 | 1011.8 |
| 20260509141746 | 79 | 173 | 1.7 | 2.6 | 0.00 | 0.00 | 0.00 | 85 | 1012.2 |
| 20260509141243 | 78 | 97 | 0.9 | 2.6 | 0.00 | 0.00 | 0.00 | 87 | 1011.8 |
| 20260509140740 | 77 | 172 | 3.5 | 5.2 | 0.00 | 0.00 | 0.00 | 88 | 1011.6 |
| 20260509140237 | 77 | 149 | 2.6 | 3.5 | 0.00 | 0.00 | 0.00 | 88 | 1011.6 |
| 20260509135734 | 77 | 184 | 5.2 | 6.1 | 0.00 | 0.00 | 0.00 | 88 | 1011.7 |
| 20260509135232 | 76 | 181 | 3.5 | 3.5 | 0.00 | 0.00 | 0.00 | 90 | 1011.2 |
| 20260509134729 | 76 | 192 | 7.0 | 9.6 | 0.00 | 0.00 | 0.00 | 90 | 1011.5 |
| 20260509134226 | 76 | 193 | 3.5 | 3.5 | 0.00 | 0.00 | 0.00 | 91 | 1011.7 |
| 20260509133724 | 75 | 259 | 5.2 | 7.0 | 0.00 | 0.00 | 0.00 | 92 | 1011.8 |
| 20260509133220 | 75 | 184 | 4.3 | 5.2 | 0.00 | 0.00 | 0.00 | 93 | 1011.9 |
| 20260509132719 | 74 | 194 | 5.2 | 6.1 | 0.00 | 0.00 | 0.00 | 94 | 1011.8 |
| 20260509132217 | 74 | 207 | 3.5 | 5.2 | 0.00 | 0.00 | 0.00 | 95 | 1011.9 |
| 20260509131713 | 73 | 177 | 4.3 | 5.2 | 0.00 | 0.00 | 0.00 | 96 | 1012.0 |
| 20260509131210 | 73 | 177 | 1.7 | 2.6 | 0.00 | 0.00 | 0.00 | 97 | 1012.0 |
| 20260509130706 | 72 | 164 | 3.5 | 3.5 | 0.00 | 0.00 | 0.00 | 98 | 1012.1 |
| 20260509130202 | 72 | 176 | 5.2 | 6.1 | 0.00 | 0.00 | 0.00 | 99 | 1012.2 |
| 20260509125658 | 72 | 193 | 1.7 | 1.7 | 0.00 | 0.00 | 0.00 | 99 | 1012.4 |
| 20260509125155 | 72 | 172 | 0.9 | 1.7 | 0.00 | 0.00 | 0.00 | 99 | 1012.2 |
| 20260509124652 | 72 | 237 | 0.0 | 0.9 | 0.00 | 0.00 | 0.00 | 99 | 1012.3 |
| 20260509124149 | 72 | 214 | 0.9 | 1.7 | 0.00 | 0.00 | 0.00 | 99 | 1012.3 |
| 20260509123647 | 72 | 218 | 0.0 | 0.0 | 0.00 | 0.00 | 0.00 | 99 | 1012.3 |
| 20260509123144 | 72 | 262 | 0.0 | 0.0 | 0.00 | 0.00 | 0.00 | 99 | 1012.2 |
| 20260509122639 | 71 | 318 | 0.0 | 0.9 | 0.00 | 0.00 | 0.00 | 99 | 1012.2 |
| 20260509122136 | 71 | 293 | 1.7 | 1.7 | 0.00 | 0.00 | 0.00 | 99 | 1011.9 |
| 20260509121633 | 71 | 330 | 0.9 | 1.7 | 0.00 | 0.00 | 0.00 | 99 | 1011.9 |
| 20260509121131 | 71 | 331 | 0.0 | 0.0 | 0.00 | 0.00 | 0.00 | 99 | 1012.1 |
| 20260509120628 | 71 | 264 | 1.7 | 2.6 | 0.00 | 0.00 | 0.00 | 99 | 1012.1 |
| 20260509120127 | 71 | 304 | 0.9 | 0.9 | 0.00 | 0.00 | 0.00 | 99 | 1012.2 |
| 20260509115623 | 71 | 348 | 2.6 | 3.5 | 0.00 | 0.00 | 0.00 | 99 | 1012.4 |
| 20260509115121 | 71 | 64 | 0.0 | 0.0 | 0.00 | 0.00 | 0.00 | 99 | 1012.0 |
| 20260509114619 | 71 | 126 | 0.9 | 0.9 | 0.00 | 0.00 | 0.00 | 99 | 1012.1 |
| 20260509114118 | 71 | 148 | 1.7 | 1.7 | 0.00 | 0.00 | 0.00 | 99 | 1012.4 |
| 20260509113616 | 72 | 147 | 0.9 | 1.7 | 0.00 | 0.00 | 0.00 | 99 | 1012.7 |
| 20260509113113 | 72 | 340 | 0.0 | 0.0 | 0.00 | 0.00 | 0.00 | 99 | 1012.8 |
| 20260509112609 | 72 | 357 | 0.0 | 0.9 | 0.00 | 0.00 | 0.00 | 99 | 1013.0 |
| 20260509112106 | 72 | 11 | 0.0 | 0.0 | 0.00 | 0.00 | 0.00 | 99 | 1013.1 |
| 20260509111603 | 72 | 328 | 3.5 | 3.5 | 0.00 | 0.00 | 0.00 | 99 | 1013.2 |
| 20260509111100 | 72 | 317 | 2.6 | 3.5 | 0.00 | 0.00 | 0.00 | 99 | 1013.4 |
| 20260509110557 | 72 | 294 | 2.6 | 2.6 | 0.00 | 0.00 | 0.00 | 99 | 1013.4 |
| 20260509110054 | 72 | 332 | 1.7 | 2.6 | 0.00 | 0.00 | 0.00 | 99 | 1013.5 |
| 20260509105553 | 72 | 323 | 0.9 | 0.9 | 0.00 | 0.00 | 0.00 | 99 | 1013.5 |
| 20260509105050 | 71 | 341 | 1.7 | 1.7 | 0.00 | 0.00 | 0.00 | 99 | 1013.5 |
| 20260509104547 | 71 | 326 | 1.7 | 1.7 | 0.00 | 0.00 | 0.00 | 99 | 1013.5 |
| 20260509104043 | 71 | 303 | 0.9 | 0.9 | 0.00 | 0.00 | 0.00 | 99 | 1013.4 |
| 20260509103541 | 71 | 334 | 2.6 | 2.6 | 0.00 | 0.00 | 0.00 | 99 | 1013.6 |
| 20260509103039 | 71 | 334 | 2.6 | 3.5 | 0.00 | 0.00 | 0.00 | 99 | 1013.5 |
| 20260509102536 | 71 | 331 | 0.0 | 0.0 | 0.00 | 0.00 | 0.00 | 99 | 1013.4 |
| 20260509102033 | 71 | 308 | 0.0 | 0.0 | 0.00 | 0.00 | 0.00 | 99 | 1013.6 |
| 20260509101529 | 71 | 324 | 0.9 | 1.7 | 0.00 | 0.00 | 0.00 | 99 | 1013.2 |
| 20260509101026 | 71 | 331 | 0.9 | 1.7 | 0.00 | 0.00 | 0.00 | 99 | 1013.2 |
| 20260509100523 | 71 | 5 | 0.9 | 1.7 | 0.00 | 0.00 | 0.00 | 99 | 1012.9 |
| 20260509100021 | 71 | 344 | 1.7 | 1.7 | 0.00 | 0.00 | 0.00 | 99 | 1012.9 |
| 20260509095517 | 71 | 117 | 0.0 | 0.0 | 0.00 | 0.00 | 0.00 | 99 | 1012.5 |
| 20260509095015 | 71 | 117 | 0.0 | 0.0 | 0.00 | 0.00 | 0.00 | 99 | 1012.4 |
| 20260509094511 | 71 | 117 | 0.0 | 0.0 | 0.00 | 0.00 | 0.00 | 99 | 1012.2 |
| 20260509094008 | 71 | 117 | 0.0 | 0.0 | 0.00 | 0.00 | 0.00 | 99 | 1012.1 |
| 20260509093506 | 71 | 117 | 0.0 | 0.0 | 0.00 | 0.00 | 0.00 | 99 | 1011.9 |
| 20260509093004 | 71 | 117 | 0.0 | 0.0 | 0.00 | 0.00 | 0.00 | 99 | 1011.8 |
| 20260509092501 | 71 | 201 | 0.0 | 0.0 | 0.00 | 0.00 | 0.00 | 99 | 1011.9 |
| 20260509092000 | 71 | 201 | 0.0 | 0.0 | 0.00 | 0.00 | 0.00 | 99 | 1011.8 |
| 20260509091456 | 71 | 201 | 0.0 | 0.9 | 0.00 | 0.00 | 0.00 | 99 | 1011.8 |
| 20260509090953 | 71 | 130 | 0.0 | 0.0 | 0.00 | 0.00 | 0.00 | 99 | 1011.7 |
| 20260509090451 | 71 | 131 | 0.0 | 0.0 | 0.00 | 0.00 | 0.00 | 99 | 1011.6 |
| 20260509085948 | 71 | 126 | 0.0 | 0.0 | 0.00 | 0.00 | 0.00 | 99 | 1011.7 |
| 20260509085444 | 71 | 73 | 0.0 | 0.0 | 0.00 | 0.00 | 0.00 | 99 | 1011.7 |
| 20260509084940 | 71 | 62 | 0.0 | 0.0 | 0.00 | 0.00 | 0.00 | 99 | 1012.0 |
| 20260509084432 | 71 | 63 | 0.0 | 0.0 | 0.00 | 0.00 | 0.00 | 99 | 1012.1 |
| 20260509083930 | 71 | 63 | 0.0 | 0.0 | 0.00 | 0.00 | 0.00 | 99 | 1012.2 |
| 20260509083427 | 71 | 89 | 0.9 | 0.9 | 0.00 | 0.00 | 0.00 | 99 | 1012.2 |
| 20260509082924 | 71 | 174 | 0.0 | 0.0 | 0.00 | 0.00 | 0.00 | 99 | 1012.5 |
| 20260509082421 | 71 | 140 | 0.9 | 0.9 | 0.00 | 0.00 | 0.00 | 99 | 1012.4 |
| 20260509081917 | 71 | 94 | 0.9 | 0.9 | 0.00 | 0.00 | 0.00 | 99 | 1012.1 |
| 20260509081415 | 71 | 86 | 0.0 | 0.0 | 0.00 | 0.00 | 0.00 | 99 | 1012.1 |
| 20260509080912 | 71 | 31 | 0.0 | 0.0 | 0.00 | 0.00 | 0.00 | 99 | 1012.0 |
| 20260509080410 | 71 | 70 | 0.0 | 0.9 | 0.00 | 0.00 | 0.00 | 99 | 1012.2 |
| 20260509075908 | 71 | 38 | 0.0 | 0.0 | 0.00 | 0.00 | 0.00 | 99 | 1012.4 |
| 20260509075405 | 71 | 25 | 0.0 | 0.0 | 0.00 | 0.00 | 0.00 | 99 | 1012.5 |
| 20260509074902 | 72 | 45 | 0.0 | 0.0 | 0.00 | 0.00 | 0.00 | 99 | 1012.4 |
| 20260509074400 | 72 | 22 | 0.0 | 0.0 | 0.00 | 0.00 | 0.00 | 99 | 1012.4 |
| 20260509073856 | 72 | 73 | 0.9 | 1.7 | 0.00 | 0.00 | 0.00 | 99 | 1012.4 |
| 20260509073353 | 72 | 68 | 0.0 | 0.0 | 0.00 | 0.00 | 0.00 | 99 | 1012.6 |
| 20260509072849 | 72 | 67 | 0.0 | 0.0 | 0.00 | 0.00 | 0.00 | 99 | 1012.5 |
| 20260509072346 | 72 | 74 | 0.0 | 0.9 | 0.00 | 0.00 | 0.00 | 98 | 1012.7 |
| 20260509071842 | 72 | 52 | 0.0 | 0.0 | 0.00 | 0.00 | 0.00 | 98 | 1012.6 |
| 20260509071339 | 72 | 55 | 0.0 | 0.9 | 0.00 | 0.00 | 0.00 | 98 | 1012.9 |
| 20260509070837 | 72 | 112 | 0.9 | 1.7 | 0.00 | 0.00 | 0.00 | 98 | 1012.8 |
| 20260509070333 | 72 | 115 | 1.7 | 1.7 | 0.00 | 0.00 | 0.00 | 98 | 1012.9 |
| 20260509065830 | 72 | 81 | 0.0 | 0.0 | 0.00 | 0.00 | 0.00 | 98 | 1012.8 |
| 20260509065326 | 72 | 81 | 0.0 | 0.0 | 0.00 | 0.00 | 0.00 | 98 | 1012.5 |
| 20260509064822 | 72 | 79 | 0.9 | 1.7 | 0.00 | 0.00 | 0.00 | 98 | 1012.6 |
| 20260509064320 | 72 | 74 | 0.0 | 0.9 | 0.00 | 0.00 | 0.00 | 97 | 1012.6 |
| 20260509063817 | 72 | 110 | 0.9 | 1.7 | 0.00 | 0.00 | 0.00 | 97 | 1012.4 |
| 20260509063313 | 72 | 107 | 1.7 | 1.7 | 0.00 | 0.00 | 0.00 | 97 | 1012.9 |
| 20260509062810 | 72 | 117 | 2.6 | 3.5 | 0.00 | 0.00 | 0.00 | 97 | 1012.7 |
| 20260509062308 | 72 | 96 | 1.7 | 2.6 | 0.00 | 0.00 | 0.00 | 96 | 1012.5 |
| 20260509061804 | 73 | 116 | 2.6 | 3.5 | 0.00 | 0.00 | 0.00 | 96 | 1012.3 |
| 20260509061302 | 73 | 116 | 2.6 | 3.5 | 0.00 | 0.00 | 0.00 | 95 | 1012.2 |
| 20260509060759 | 73 | 137 | 3.5 | 3.5 | 0.00 | 0.00 | 0.00 | 95 | 1012.2 |
| 20260509060255 | 73 | 130 | 3.5 | 5.2 | 0.00 | 0.00 | 0.00 | 95 | 1012.0 |
| 20260509055746 | 73 | 104 | 4.3 | 5.2 | 0.00 | 0.00 | 0.00 | 95 | 1012.1 |
| 20260509055241 | 73 | 141 | 4.3 | 5.2 | 0.00 | 0.00 | 0.00 | 95 | 1012.2 |
| 20260509054738 | 73 | 127 | 7.0 | 7.8 | 0.00 | 0.00 | 0.00 | 95 | 1012.2 |
| 20260509054235 | 73 | 107 | 2.6 | 2.6 | 0.00 | 0.00 | 0.00 | 95 | 1012.2 |
| 20260509053734 | 73 | 180 | 3.5 | 3.5 | 0.00 | 0.00 | 0.00 | 94 | 1011.8 |
| 20260509053230 | 73 | 117 | 7.0 | 7.0 | 0.00 | 0.00 | 0.00 | 94 | 1011.6 |
| 20260509052728 | 73 | 84 | 5.2 | 6.1 | 0.00 | 0.00 | 0.00 | 94 | 1011.3 |